Hourly Weather Almaty

Today, 6 March, Saturday

Time Temperature Precipitation Wind Pressure Humidity
00:00 -1°C° 0 mm 3 mps 692 mmHg 64%
01:00 -1°C° 0 mm 3 mps 692 mmHg 61%
02:00 0°C° 0 mm 3 mps 692 mmHg 57%
03:00 0°C° 0 mm 3 mps 691 mmHg 55%
04:00 0°C° 0 mm 3 mps 691 mmHg 53%
05:00 0°C° 0 mm 3 mps 691 mmHg 50%
06:00 +1°C° 0 mm 3 mps 690 mmHg 51%
07:00 +1°C° 0 mm 3 mps 690 mmHg 52%
08:00 +2°C° 0 mm 3 mps 689 mmHg 53%
09:00 +3°C° 0 mm 3 mps 689 mmHg 55%
10:00 +6°C° 0 mm 2 mps 688 mmHg 56%
11:00 +7°C° 0 mm 2 mps 687 mmHg 57%
12:00 +7°C° 0 mm 2 mps 686 mmHg 57%
13:00 +8°C° 0 mm 2 mps 685 mmHg 56%
14:00 +9°C° 0 mm 2 mps 684 mmHg 56%
15:00 +8°C° 0 mm 2 mps 684 mmHg 57%
16:00 +7°C° 0 mm 2 mps 684 mmHg 57%
17:00 +7°C° 0 mm 2 mps 684 mmHg 58%
18:00 +6°C° 0 mm 2 mps 684 mmHg 55%
19:00 +5°C° 0 mm 2 mps 684 mmHg 52%
20:00 +5°C° 0 mm 2 mps 684 mmHg 49%
21:00 +5°C° 0 mm 2 mps 684 mmHg 50%
22:00 +6°C° 0 mm 1 mps 684 mmHg 50%
23:00 +5°C° 0 mm 1 mps 684 mmHg 50%

Tomorrow, 7 March, Sunday

Time Temperature Precipitation Wind Pressure Humidity
00:00 +5°C° 0 mm 1 mps 684 mmHg 51%
01:00 +5°C° 0 mm 1 mps 684 mmHg 53%
02:00 +5°C° 0 mm 1 mps 684 mmHg 54%
03:00 +5°C° 0 mm 1 mps 684 mmHg 54%
04:00 +4°C° 0 mm 1 mps 684 mmHg 55%
05:00 +4°C° 0 mm 1 mps 685 mmHg 55%
06:00 +5°C° 0 mm 1 mps 685 mmHg 57%
07:00 +5°C° 0 mm 1 mps 686 mmHg 59%
08:00 +6°C° 0 mm 1 mps 686 mmHg 61%
09:00 +6°C° 0 mm 1 mps 686 mmHg 61%
10:00 +7°C° 0 mm 1 mps 686 mmHg 62%
11:00 +7°C° 0 mm 2 mps 686 mmHg 62%
12:00 +7°C° 0 mm 2 mps 686 mmHg 63%
13:00 +8°C° 0 mm 2 mps 686 mmHg 65%
14:00 +8°C° 0 mm 2 mps 686 mmHg 66%
15:00 +8°C° 0.1 mm 1 mps 686 mmHg 68%
16:00 +8°C° 0.1 mm 1 mps 686 mmHg 70%
17:00 +8°C° 0.1 mm 1 mps 686 mmHg 72%
18:00 +7°C° 0 mm 1 mps 687 mmHg 73%
19:00 +6°C° 0 mm 1 mps 687 mmHg 75%
20:00 +5°C° 0 mm 1 mps 687 mmHg 77%
21:00 +5°C° 0 mm 1 mps 687 mmHg 76%
22:00 +4°C° 0 mm 2 mps 687 mmHg 76%
23:00 +3°C° 0 mm 2 mps 687 mmHg 75%

Day after tomorrow, 8 March, Monday

Time Temperature Precipitation Wind Pressure Humidity
00:00 +3°C° 0 mm 2 mps 686 mmHg 74%
01:00 +3°C° 0 mm 2 mps 686 mmHg 73%
02:00 +4°C° 0 mm 1 mps 686 mmHg 72%
03:00 +4°C° 0 mm 1 mps 686 mmHg 72%
04:00 +4°C° 0 mm 1 mps 686 mmHg 72%
05:00 +4°C° 0 mm 1 mps 687 mmHg 72%
06:00 +4°C° 0 mm 1 mps 687 mmHg 71%
07:00 +5°C° 0 mm 1 mps 687 mmHg 70%
08:00 +5°C° 0 mm 0 mps 687 mmHg 69%
09:00 +6°C° 0 mm 0 mps 687 mmHg 66%
10:00 +8°C° 0 mm 1 mps 687 mmHg 63%
11:00 +9°C° 0 mm 1 mps 687 mmHg 61%
12:00 +10°C° 0 mm 1 mps 687 mmHg 60%
13:00 +10°C° 0 mm 1 mps 687 mmHg 59%
14:00 +11°C° 0 mm 1 mps 687 mmHg 59%
15:00 +10°C° 0 mm 1 mps 687 mmHg 61%
16:00 +10°C° 0 mm 1 mps 688 mmHg 64%
17:00 +8°C° 0 mm 0 mps 688 mmHg 66%
18:00 +9°C° 0 mm 1 mps 689 mmHg 67%
19:00 +8°C° 0 mm 1 mps 689 mmHg 67%
20:00 +7°C° 0 mm 1 mps 690 mmHg 68%
21:00 +7°C° 0 mm 1 mps 690 mmHg 68%
22:00 +7°C° 0 mm 1 mps 690 mmHg 68%
23:00 +7°C° 0 mm 1 mps 690 mmHg 67%

9 March, Tuesday

Time Temperature Precipitation Wind Pressure Humidity
00:00 +6°C° 0 mm 1 mps 690 mmHg 67%
01:00 +6°C° 0 mm 1 mps 690 mmHg 67%
02:00 +6°C° 0 mm 1 mps 690 mmHg 67%
03:00 +6°C° 0 mm 1 mps 689 mmHg 66%
04:00 +6°C° 0 mm 1 mps 689 mmHg 65%
05:00 +6°C° 0 mm 1 mps 689 mmHg 65%
06:00 +6°C° 0 mm 1 mps 689 mmHg 64%
07:00 +6°C° 0 mm 2 mps 689 mmHg 63%
08:00 +6°C° 0 mm 2 mps 689 mmHg 62%
09:00 +7°C° 0 mm 2 mps 688 mmHg 60%
10:00 +8°C° 0 mm 2 mps 687 mmHg 59%
11:00 +9°C° 0 mm 2 mps 687 mmHg 57%
12:00 +10°C° 0 mm 2 mps 686 mmHg 56%
13:00 +12°C° 0 mm 2 mps 685 mmHg 54%
14:00 +13°C° 0 mm 2 mps 685 mmHg 53%
15:00 +12°C° 0 mm 2 mps 685 mmHg 54%
16:00 +12°C° 0 mm 2 mps 684 mmHg 55%
17:00 +10°C° 0 mm 2 mps 684 mmHg 56%
18:00 +10°C° 0 mm 2 mps 684 mmHg 55%
19:00 +9°C° 0 mm 2 mps 684 mmHg 53%
20:00 +8°C° 0 mm 2 mps 685 mmHg 52%
21:00 +8°C° 0 mm 2 mps 684 mmHg 53%
22:00 +8°C° 0 mm 2 mps 684 mmHg 54%
23:00 +7°C° 0 mm 2 mps 684 mmHg 54%

10 March, Wednesday

Time Temperature Precipitation Wind Pressure Humidity
00:00 +7°C° 0 mm 2 mps 683 mmHg 54%
01:00 +7°C° 0 mm 2 mps 683 mmHg 54%
02:00 +7°C° 0 mm 2 mps 682 mmHg 53%
03:00 +7°C° 0 mm 2 mps 682 mmHg 53%
04:00 +7°C° 0 mm 2 mps 682 mmHg 53%
05:00 +7°C° 0 mm 2 mps 681 mmHg 54%
06:00 +7°C° 0 mm 2 mps 682 mmHg 54%
07:00 +8°C° 0 mm 2 mps 682 mmHg 54%
08:00 +8°C° 0 mm 2 mps 682 mmHg 55%
09:00 +10°C° 0 mm 2 mps 682 mmHg 53%
10:00 +12°C° 0 mm 2 mps 682 mmHg 52%
11:00 +13°C° 0 mm 2 mps 681 mmHg 51%
12:00 +13°C° 0 mm 1 mps 681 mmHg 51%
13:00 +13°C° 0 mm 1 mps 681 mmHg 51%
14:00 +14°C° 0 mm 1 mps 681 mmHg 51%
15:00 +13°C° 0.1 mm 1 mps 682 mmHg 54%
16:00 +13°C° 0.1 mm 2 mps 682 mmHg 57%
17:00 +12°C° 0.1 mm 2 mps 683 mmHg 60%
18:00 +10°C° 1 mm 2 mps 684 mmHg 70%
19:00 +9°C° 1 mm 2 mps 685 mmHg 80%
20:00 +8°C° 1 mm 2 mps 686 mmHg 90%
21:00 +7°C° 2.6 mm 2 mps 686 mmHg 89%
22:00 +5°C° 2.6 mm 3 mps 687 mmHg 88%
23:00 +4°C° 2.6 mm 3 mps 688 mmHg 87%

11 March, Thursday

Time Temperature Precipitation Wind Pressure Humidity
00:00 +4°C° 0.4 mm 2 mps 688 mmHg 87%
01:00 +4°C° 0.4 mm 2 mps 688 mmHg 87%
02:00 +4°C° 0.4 mm 1 mps 689 mmHg 87%
03:00 +4°C° 0.7 mm 1 mps 689 mmHg 88%
04:00 +4°C° 0.7 mm 1 mps 689 mmHg 89%
05:00 +3°C° 0.7 mm 0 mps 690 mmHg 90%
06:00 +4°C° 0.2 mm 1 mps 690 mmHg 87%
07:00 +4°C° 0.2 mm 1 mps 690 mmHg 84%
08:00 +4°C° 0.2 mm 1 mps 690 mmHg 81%
09:00 +5°C° 0 mm 1 mps 689 mmHg 78%
10:00 +6°C° 0 mm 1 mps 689 mmHg 75%
11:00 +5°C° 0 mm 2 mps 688 mmHg 72%
12:00 +6°C° 0 mm 2 mps 688 mmHg 70%
13:00 +6°C° 0 mm 2 mps 688 mmHg 69%
14:00 +6°C° 0 mm 2 mps 687 mmHg 67%
15:00 +6°C° 0 mm 2 mps 687 mmHg 68%
16:00 +6°C° 0 mm 2 mps 688 mmHg 69%
17:00 +5°C° 0 mm 2 mps 688 mmHg 70%
18:00 +5°C° 0 mm 2 mps 688 mmHg 69%
19:00 +4°C° 0 mm 2 mps 688 mmHg 69%
20:00 +4°C° 0 mm 2 mps 689 mmHg 68%
21:00 +4°C° 0 mm 2 mps 689 mmHg 67%
22:00 +4°C° 0 mm 2 mps 689 mmHg 66%
23:00 +4°C° 0 mm 1 mps 689 mmHg 65%
Show more

We Need Your Consent

Meteoprog and our Service Providers may store and access personal data such as cookies, device identifiers or other similar technologies on your device and process such data to personalise content and ads, as well as provide social media features and to analyse the traffic.

  • Store and/or access information on your device

    Cookies, device identifiers or other information can be stored or accessed on your device for the purposes indicated above.

  • Personalised ads and content, ad and content measurement, audience insights, and products development

    Ads and content can be personalised based on a profile. More data can be added to better personalise ads and content. Ad and content performance can be measured. Insights about the audience who saw the ads and content can be derived. Such data can be used to develop or improve user’s experience, systems and software.

By clicking ‘I Agree’ you will allow the use of indicated cookies, device identifiers, web beacons or other similar technologies. Your settings can be changed in the browser on your device.

For certain purposes, legitimate interests may be relied on, rather than consent. You can read more about this in our Privacy and Cookie Policy.